Location: Newark
(39.6889°N, 28.1522°E)
Time: 19:22:05
(UTC+00:00)

ISS - Visible Passes

Search period start: 23 October 2019 00:00
Search period end: 02 November 2019 00:00
Orbit: 411 x 421 km, 51.6° (Epoch: 24 October)

Date Brightness Start Highest point End Pass type
(mag) Time Alt. Az. Time Alt. Az. Time Alt. Az.
24 Oct -1.6 03:13:40 10° SSW 03:16:31 26° SE 03:19:24 10° ENE visible
25 Oct -1.0 02:26:34 12° SSE 02:28:06 15° SE 02:30:05 10° E visible
25 Oct -3.6 04:01:11 10° WSW 04:04:30 58° NW 04:07:50 10° NE visible
26 Oct -3.7 03:13:49 21° SW 03:15:53 80° SE 03:19:15 10° NE visible
27 Oct -2.4 02:27:51 39° ESE 02:27:51 39° ESE 02:30:33 10° ENE visible
27 Oct -2.5 04:01:17 10° W 04:04:10 26° NNW 04:07:04 10° NNE visible
28 Oct -3.1 03:14:38 33° WNW 03:15:25 38° NNW 03:18:36 10° NE visible
29 Oct -1.9 02:28:21 27° NE 02:28:21 27° NE 02:30:05 10° NE visible
29 Oct -1.7 04:01:51 10° WNW 04:03:59 16° NNW 04:06:07 10° NNE visible
30 Oct -2.1 03:14:51 20° NNW 03:15:07 20° NNW 03:17:41 10° NNE visible
31 Oct -1.2 02:28:21 16° NNE 02:28:21 16° NNE 02:29:14 10° NE visible
31 Oct -1.3 04:02:37 10° NNW 04:03:53 12° N 04:05:09 10° NNE visible
01 Nov -1.5 03:14:40 13° NNW 03:14:56 13° NNW 03:16:40 10° NNE visible
